Printer-friendly version

IAU Minor Planet Center

Minor Planet Center

MPEC 2006-R16 : 2006 QY110

The following Minor Planet Electronic Circular may be linked-to from your own Web pages, but must not otherwise be redistributed electronically.


Read MPEC 2006-R15 Read MPEC 2006-R17


M.P.E.C. 2006-R16                                Issued 2006 Sept. 6, 17:41 UT

     The Minor Planet Electronic Circulars contain information on unusual
         minor planets and routine data on comets.  They are published
   on behalf of Commission 20 of the International Astronomical Union by the
          Minor Planet Center, Smithsonian Astrophysical Observatory,
                          Cambridge, MA 02138, U.S.A.

                  Supported in part by the Brinson Foundation
                  Supported in part by the TABASGO Foundation
             Prepared using the Tamkin Foundation Computer Network

                              MPC@CFA.HARVARD.EDU
          URL http://cfa-www.harvard.edu/iau/mpc.html  ISSN 1523-6714

                                  2006 QY110

                           Revision to MPEC 2006-Q65

Additional Observations:
     K06QB0Y VC2003 07 23.45749 20 26 11.69 -07 36 50.6                 ER016608
     K06QB0Y VC2003 07 23.46282 20 26 11.28 -07 36 52.1          20.5 V ER016608
     K06QB0Y VC2003 08 13.29587 19 54 46.34 -09 04 57.6                 ER016608

Observer details:
608 Haleakala-NEAT/MSSS.  Observers R. Bambery, S. Pravdo, M. Hicks,
    K. Lawrence, P. Kervin, E. F. Helin, R. Maeda, J. Africano.  Measurers
    S. Foglia, G. Forti, M. Tombelli.  1.2-m reflector + CCD.

Orbital elements:
2006 QY110                                          PHA, Earth MOID = 0.0328 AU
Epoch 2006 Sept. 22.0 TT = JDT 2454000.5                MPC
M 346.03733              (2000.0)            P               Q
n   0.36745534     Peri.  221.01327     +0.10725042     -0.99129430
a   1.9304846      Node   222.99212     +0.93893045     +0.12624785
e   0.5752577      Incl.    6.43072     +0.32696631     -0.03737760
P   2.68           H   18.0           G   0.15           U   4
Residuals in seconds of arc
030723 608  0.3-  0.2+    060831 673  0.2-  0.0     060902 147  0.4-  0.5+
030723 608  0.5+  0.4-    060831 673  0.3-  0.0     060902 147  0.1-  0.2-
030813 608  0.3-  0.4+    060831 673  0.2-  0.5-    060902 147  0.8-  0.1-
060830 704  0.3+  1.1-    060831 673  0.4-  0.2-    060902 H36  0.6+  0.3-
060830 704  1.3-  0.1-    060901 649  0.2-  0.3-    060902 H36  0.6+  0.3+
060830 704  0.7+  0.5+    060901 649 (0.4-  3.3-)   060904 673  0.4-  0.6+
060830 704  0.9+  0.2-    060901 649  0.1-  0.5+    060904 673  0.5+  0.4+
060831 204  0.5+  0.1+    060901 649  0.2-  0.0     060904 673  0.1-  0.4+
060831 204  0.5+  0.0     060901 649  0.2+  0.1+    060904 673  0.4-  0.4+
060831 734  0.4+  0.6-    060901 673  0.1+  0.1-    060905 H36  0.3+  0.1-
060831 734  0.5-  0.2-    060901 673  0.0   0.2-    060905 H36  0.1+  0.7+
060831 734  0.1-  0.2-    060901 673  0.0   0.1-

Ephemeris:
2006 QY110               a,e,i = 1.93, 0.58, 6                   q = 0.8200
Date    TT    R. A. (2000) Decl.     Delta      r     Elong.  Phase     V
2006 09 02    04 31.51   +29 40.5    0.548    1.136    88.6    62.6    19.2
2006 09 12    05 51.07   +29 15.7    0.507    1.054    81.0    70.6    19.1
2006 09 22    07 12.86   +25 38.4    0.503    0.977    72.4    78.2    19.2
2006 10 02    08 25.38   +19 43.2    0.535    0.911    64.7    83.3    19.4
2006 10 12    09 25.03   +13 09.8    0.596    0.859    59.0    84.5    19.5
2006 10 22    10 14.24   +07 00.5    0.677    0.828    55.5    82.2    19.6
2006 11 01    10 56.40   +01 34.7    0.768    0.820    53.7    77.3    19.7
2006 11 11    11 33.94   -03 07.7    0.860    0.838    53.3    71.3    19.8
2006 11 21    12 08.17   -07 11.2    0.947    0.878    53.9    65.4    19.9
2006 12 01    12 39.58   -10 39.1    1.023    0.936    55.5    60.2    20.1
2006 12 11    13 08.42   -13 34.7    1.086    1.007    57.9    56.0    20.2
2006 12 21    13 34.73   -16 01.1    1.134    1.086    61.2    52.6    20.4
2006 12 31    13 58.44   -18 00.5    1.166    1.170    65.4    49.8    20.5
2007 01 10    14 19.45   -19 35.7    1.182    1.257    70.3    47.4    20.6
2007 01 20    14 37.56   -20 48.8    1.184    1.344    76.0    45.3    20.7
2007 01 30    14 52.44   -21 41.4    1.173    1.430    82.6    43.1    20.8
2007 02 09    15 03.72   -22 14.5    1.150    1.515    90.0    40.6    20.8
2007 02 19    15 10.95   -22 28.4    1.120    1.598    98.4    37.7    20.8
2007 03 01    15 13.60   -22 22.1    1.086    1.679   107.9    34.2    20.7
2007 03 11    15 11.32   -21 54.0    1.052    1.758   118.5    29.8    20.6
2007 03 21    15 04.01   -21 01.6    1.025    1.834   130.3    24.5    20.5
2007 03 31    14 52.17   -19 43.7    1.011    1.907   143.2    18.3    20.4
2007 04 10    14 37.11   -18 03.1    1.017    1.978   157.0    11.4    20.2
2007 04 20    14 20.78   -16 07.8    1.048    2.046   171.0     4.4    20.0
2007 04 30    14 05.33   -14 11.1    1.107    2.112   174.7     2.5    20.1
2007 05 10    13 52.46   -12 26.3    1.193    2.175   161.6     8.4    20.7
2007 05 20    13 43.06   -11 02.4    1.304    2.235   149.3    13.3    21.1
2007 05 30    13 37.36   -10 03.3    1.436    2.293   138.1    17.2    21.5
2007 06 09    13 35.08   -09 28.2    1.585    2.348   127.8    20.0    21.9

Kyle E. Smalley              (C) Copyright 2006 MPC           M.P.E.C. 2006-R16

Read MPEC 2006-R15 Read MPEC 2006-R17


Our Web policy. Index to the CBAT/MPC/ICQ pages.


Valid HTML 4.01!